Location: Austin
(30.3000°N, 97.7500°W)
Time: 00:02:58
(UTC-05:00)

Cosmos 921 Rocket - Pass Details

Date: 06 May 2026
Orbit: 563 x 620 km, 75.8° (Epoch: 13 May)

Event Time Altitude Azimuth Distance (km) Brightness Sun altitude
Rises 20:37:42 0° 352° (N) 2,820 6.9 -5.9°
Reaches altitude 10° 20:39:59 10° 357° (N) 1,906 5.9 -6.4°
Maximum altitude 20:44:07 52° 74° (ENE) 722 3.1 -7.2°
Drops below altitude 10° 20:48:09 10° 151° (SSE) 1,865 5.0 -8.0°
Enters shadow 20:49:29 - 155° (SSE) 2,396 5.6 -8.2°
